| time (UTC) | temp F | wind direction | speed MPH | gust MPH | rain 1hr in | rain 24hr in | rain mn in | humidity % | barometer mb |
| 20260510094548 | 42 | 290 | 4.0 | 8.0 | 0.00 | 0.02 | 0.00 | 72 | 1010.1 |
| 20260510093521 | 42 | 274 | 5.0 | 8.0 | 0.00 | 0.02 | 0.00 | 71 | 1010.0 |
| 20260510092529 | 42 | 213 | 1.0 | 4.0 | 0.00 | 0.02 | 0.00 | 70 | 1009.9 |
| 20260510091523 | 43 | 249 | 1.0 | 3.0 | 0.00 | 0.02 | 0.00 | 69 | 1009.8 |
| 20260510090559 | 44 | 299 | 3.0 | 7.0 | 0.00 | 0.02 | 0.00 | 68 | 1009.6 |
| 20260510085527 | 44 | 210 | 3.0 | 8.0 | 0.00 | 0.02 | 0.00 | 67 | 1009.5 |
| 20260510084521 | 44 | 272 | 3.0 | 6.0 | 0.00 | 0.02 | 0.00 | 66 | 1009.4 |
| 20260510083517 | 45 | 250 | 4.0 | 8.0 | 0.00 | 0.02 | 0.00 | 65 | 1009.3 |
| 20260510082526 | 45 | 238 | 4.0 | 5.0 | 0.00 | 0.02 | 0.00 | 63 | 1009.3 |
| 20260510081540 | 46 | 225 | 3.0 | 7.0 | 0.00 | 0.02 | 0.00 | 60 | 1009.2 |
| 20260510080529 | 46 | 275 | 5.0 | 9.0 | 0.00 | 0.02 | 0.00 | 59 | 1009.2 |
| 20260510075543 | 46 | 259 | 5.0 | 15.0 | 0.00 | 0.02 | 0.00 | 59 | 1009.0 |
| 20260510074518 | 47 | 260 | 9.0 | 15.0 | 0.00 | 0.02 | 0.00 | 60 | 1009.0 |
| 20260510073526 | 47 | 280 | 7.0 | 13.0 | 0.00 | 0.02 | 0.00 | 62 | 1008.8 |
| 20260510072521 | 47 | 237 | 3.0 | 5.0 | 0.00 | 0.02 | 0.00 | 63 | 1008.6 |
| 20260510071533 | 47 | 261 | 7.0 | 10.0 | 0.00 | 0.02 | 0.00 | 66 | 1008.6 |
| 20260510070526 | 47 | 262 | 4.0 | 7.0 | 0.00 | 0.02 | 0.00 | 70 | 1008.5 |
| 20260510065519 | 47 | 230 | 5.0 | 8.0 | 0.00 | 0.02 | 0.00 | 71 | 1008.3 |
| 20260510064529 | 47 | 226 | 4.0 | 8.0 | 0.00 | 0.02 | 0.00 | 72 | 1008.4 |
| 20260510063522 | 47 | 225 | 4.0 | 8.0 | 0.00 | 0.02 | 0.00 | 72 | 1008.2 |
| 20260510062516 | 48 | 238 | 3.0 | 4.0 | 0.00 | 0.02 | 0.00 | 72 | 1008.0 |
| 20260510061526 | 48 | 219 | 3.0 | 4.0 | 0.00 | 0.02 | 0.00 | 73 | 1007.9 |
| 20260510060519 | 49 | 238 | 3.0 | 4.0 | 0.00 | 0.02 | 0.00 | 74 | 1007.8 |
| 20260510055531 | 49 | 211 | 3.0 | 5.0 | 0.00 | 0.02 | 0.00 | 76 | 1007.7 |
| 20260510054521 | 49 | 223 | 4.0 | 7.0 | 0.00 | 0.02 | 0.00 | 79 | 1007.7 |
| 20260510053539 | 49 | 235 | 3.0 | 7.0 | 0.00 | 0.02 | 0.00 | 80 | 1007.4 |
| 20260510052528 | 50 | 243 | 4.0 | 6.0 | 0.00 | 0.02 | 0.00 | 82 | 1007.5 |
| 20260510051523 | 50 | 238 | 3.0 | 4.0 | 0.00 | 0.02 | 0.00 | 82 | 1007.4 |
| 20260510050530 | 50 | 243 | 4.0 | 7.0 | 0.00 | 0.02 | 0.00 | 83 | 1007.3 |
| 20260510045524 | 50 | 225 | 3.0 | 7.0 | 0.00 | 0.02 | 0.00 | 84 | 1007.0 |
| 20260510044518 | 50 | 229 | 4.0 | 5.0 | 0.00 | 0.02 | 0.00 | 87 | 1007.0 |
| 20260510043528 | 51 | 223 | 3.0 | 7.0 | 0.00 | 0.02 | 0.00 | 88 | 1006.8 |
| 20260510042524 | 51 | 219 | 5.0 | 8.0 | 0.00 | 0.02 | 0.00 | 89 | 1006.8 |
| 20260510041518 | 50 | 220 | 3.0 | 7.0 | 0.00 | 0.02 | 0.00 | 88 | 1006.7 |
| 20260510040530 | 50 | 230 | 2.0 | 4.0 | 0.00 | 0.02 | 0.00 | 88 | 1006.7 |
| 20260510035522 | 51 | 227 | 3.0 | 4.0 | 0.00 | 0.02 | 0.02 | 89 | 1006.6 |
| 20260510034516 | 51 | 243 | 4.0 | 8.0 | 0.00 | 0.02 | 0.02 | 88 | 1006.5 |
| 20260510033526 | 51 | 235 | 3.0 | 6.0 | 0.00 | 0.02 | 0.02 | 88 | 1006.2 |
| 20260510032542 | 51 | 231 | 5.0 | 8.0 | 0.00 | 0.02 | 0.02 | 88 | 1006.3 |
| 20260510031530 | 51 | 219 | 4.0 | 6.0 | 0.00 | 0.02 | 0.02 | 87 | 1006.0 |
| 20260510030525 | 51 | 214 | 4.0 | 5.0 | 0.00 | 0.02 | 0.02 | 87 | 1005.8 |
| 20260510025537 | 51 | 225 | 3.0 | 4.0 | 0.00 | 0.02 | 0.02 | 86 | 1005.9 |
| 20260510024526 | 52 | 211 | 4.0 | 6.0 | 0.00 | 0.02 | 0.02 | 86 | 1005.9 |
| 20260510023533 | 52 | 225 | 3.0 | 6.0 | 0.00 | 0.02 | 0.02 | 85 | 1005.7 |
| 20260510022526 | 52 | 231 | 3.0 | 4.0 | 0.00 | 0.02 | 0.02 | 85 | 1005.7 |
| 20260510021602 | 53 | 237 | 4.0 | 6.0 | 0.00 | 0.02 | 0.02 | 85 | 1005.6 |
| 20260510020528 | 53 | 239 | 5.0 | 8.0 | 0.00 | 0.02 | 0.02 | 86 | 1005.8 |
| 20260510015525 | 53 | 231 | 4.0 | 7.0 | 0.00 | 0.02 | 0.02 | 86 | 1005.7 |
| 20260510014518 | 54 | 199 | 3.0 | 6.0 | 0.00 | 0.02 | 0.02 | 86 | 1005.5 |
| 20260510013526 | 54 | 209 | 7.0 | 11.0 | 0.00 | 0.02 | 0.02 | 86 | 1005.4 |
| 20260510012521 | 54 | 189 | 7.0 | 10.0 | 0.00 | 0.02 | 0.02 | 86 | 1005.2 |
| 20260510011529 | 54 | 220 | 8.0 | 11.0 | 0.00 | 0.02 | 0.02 | 83 | 1004.9 |
| 20260510010525 | 55 | 206 | 7.0 | 11.0 | 0.00 | 0.02 | 0.02 | 82 | 1005.0 |
| 20260510005518 | 55 | 210 | 6.0 | 10.0 | 0.00 | 0.02 | 0.02 | 83 | 1004.7 |
| 20260510004527 | 55 | 176 | 5.0 | 10.0 | 0.01 | 0.02 | 0.02 | 82 | 1004.4 |
| 20260510003522 | 55 | 177 | 1.0 | 4.0 | 0.02 | 0.02 | 0.02 | 81 | 1004.4 |
| 20260510002530 | 55 | 156 | 1.0 | 2.0 | 0.02 | 0.02 | 0.02 | 80 | 1004.2 |
| 20260510001526 | 56 | 189 | 4.0 | 6.0 | 0.02 | 0.02 | 0.02 | 78 | 1004.0 |
| 20260510000518 | 56 | 190 | 6.0 | 11.0 | 0.02 | 0.02 | 0.02 | 76 | 1004.0 |
| 20260509235528 | 56 | 207 | 11.0 | 17.0 | 0.02 | 0.02 | 0.02 | 73 | 1004.1 |
| 20260509234521 | 57 | 228 | 4.0 | 8.0 | 0.01 | 0.01 | 0.01 | 70 | 1004.0 |
| 20260509233552 | 59 | 180 | 6.0 | 9.0 | 0.00 | 0.00 | 0.00 | 65 | 1003.8 |
| 20260509232525 | 59 | 160 | 6.0 | 10.0 | 0.00 | 0.00 | 0.00 | 64 | 1003.7 |
| 20260509231540 | 59 | 158 | 6.0 | 10.0 | 0.00 | 0.00 | 0.00 | 63 | 1003.8 |
| 20260509230526 | 59 | 182 | 5.0 | 8.0 | 0.00 | 0.00 | 0.00 | 63 | 1003.9 |
| 20260509225521 | 59 | 172 | 5.0 | 8.0 | 0.00 | 0.00 | 0.00 | 63 | 1004.0 |
| 20260509224531 | 59 | 157 | 6.0 | 11.0 | 0.00 | 0.00 | 0.00 | 62 | 1004.0 |
| 20260509223526 | 59 | 135 | 6.0 | 10.0 | 0.00 | 0.00 | 0.00 | 62 | 1004.1 |
| 20260509222519 | 59 | 153 | 5.0 | 9.0 | 0.00 | 0.00 | 0.00 | 63 | 1004.3 |
| 20260509221529 | 59 | 149 | 6.0 | 8.0 | 0.00 | 0.00 | 0.00 | 63 | 1004.6 |
| 20260509220525 | 59 | 180 | 8.0 | 11.0 | 0.00 | 0.00 | 0.00 | 62 | 1005.1 |
| 20260509215519 | 59 | 172 | 7.0 | 11.0 | 0.00 | 0.00 | 0.00 | 62 | 1004.8 |
| 20260509214529 | 59 | 161 | 8.0 | 11.0 | 0.00 | 0.00 | 0.00 | 62 | 1004.8 |
| 20260509213523 | 60 | 180 | 8.0 | 11.0 | 0.00 | 0.00 | 0.00 | 62 | 1004.8 |
| 20260509212532 | 60 | 183 | 7.0 | 9.0 | 0.00 | 0.00 | 0.00 | 61 | 1004.8 |
| 20260509211525 | 60 | 162 | 7.0 | 11.0 | 0.00 | 0.00 | 0.00 | 61 | 1004.7 |
| 20260509210520 | 60 | 180 | 8.0 | 14.0 | 0.00 | 0.00 | 0.00 | 60 | 1004.7 |
| 20260509205525 | 60 | 182 | 7.0 | 11.0 | 0.00 | 0.00 | 0.00 | 60 | 1004.6 |
| 20260509204520 | 60 | 199 | 8.0 | 11.0 | 0.00 | 0.00 | 0.00 | 60 | 1004.9 |
| 20260509203528 | 61 | 195 | 11.0 | 15.0 | 0.00 | 0.00 | 0.00 | 58 | 1004.7 |
| 20260509202524 | 61 | 196 | 11.0 | 15.0 | 0.00 | 0.00 | 0.00 | 57 | 1004.6 |
| 20260509201532 | 61 | 185 | 9.0 | 14.0 | 0.00 | 0.00 | 0.00 | 56 | 1004.7 |
| 20260509200525 | 62 | 197 | 10.0 | 15.0 | 0.00 | 0.00 | 0.00 | 54 | 1005.0 |
| 20260509195519 | 64 | 194 | 14.0 | 21.0 | 0.00 | 0.00 | 0.00 | 50 | 1004.9 |
| 20260509194527 | 63 | 167 | 12.0 | 19.0 | 0.00 | 0.00 | 0.00 | 51 | 1005.0 |
| 20260509193523 | 65 | 184 | 13.0 | 19.0 | 0.00 | 0.00 | 0.00 | 46 | 1005.1 |
| 20260509192531 | 64 | 194 | 11.0 | 15.0 | 0.00 | 0.00 | 0.00 | 45 | 1005.3 |
| 20260509191524 | 64 | 185 | 11.0 | 15.0 | 0.00 | 0.00 | 0.00 | 43 | 1005.3 |
| 20260509190518 | 65 | 197 | 12.0 | 17.0 | 0.00 | 0.00 | 0.00 | 42 | 1005.4 |
| 20260509185528 | 65 | 194 | 14.0 | 18.0 | 0.00 | 0.00 | 0.00 | 41 | 1005.5 |
| 20260509184521 | 65 | 171 | 12.0 | 21.0 | 0.00 | 0.00 | 0.00 | 41 | 1005.6 |
| 20260509183516 | 65 | 151 | 12.0 | 17.0 | 0.00 | 0.00 | 0.00 | 40 | 1005.7 |
| 20260509182528 | 65 | 176 | 14.0 | 23.0 | 0.00 | 0.00 | 0.00 | 37 | 1005.8 |
| 20260509181542 | 66 | 178 | 9.0 | 17.0 | 0.00 | 0.00 | 0.00 | 34 | 1005.9 |
| 20260509180518 | 63 | 190 | 11.0 | 18.0 | 0.00 | 0.00 | 0.00 | 33 | 1005.9 |
| 20260509175527 | 65 | 146 | 8.0 | 16.0 | 0.00 | 0.00 | 0.00 | 31 | 1006.0 |
| 20260509174522 | 65 | 192 | 11.0 | 17.0 | 0.00 | 0.00 | 0.00 | 31 | 1006.1 |
| 20260509173517 | 66 | 190 | 11.0 | 20.0 | 0.00 | 0.00 | 0.00 | 30 | 1006.2 |
| 20260509172527 | 66 | 177 | 8.0 | 14.0 | 0.00 | 0.00 | 0.00 | 33 | 1006.3 |
| 20260509171522 | 65 | 144 | 11.0 | 17.0 | 0.00 | 0.00 | 0.00 | 32 | 1006.5 |
| 20260509170519 | 64 | 163 | 12.0 | 16.0 | 0.00 | 0.00 | 0.00 | 31 | 1006.8 |
| 20260509165527 | 65 | 153 | 9.0 | 15.0 | 0.00 | 0.00 | 0.00 | 33 | 1006.8 |
| 20260509164522 | 64 | 176 | 8.0 | 15.0 | 0.00 | 0.00 | 0.00 | 35 | 1006.9 |
| 20260509163516 | 64 | 176 | 11.0 | 17.0 | 0.00 | 0.00 | 0.00 | 33 | 1007.0 |
| 20260509162545 | 64 | 177 | 10.0 | 17.0 | 0.00 | 0.00 | 0.00 | 33 | 1007.1 |
| 20260509161520 | 64 | 177 | 11.0 | 17.0 | 0.00 | 0.00 | 0.00 | 35 | 1007.1 |
| 20260509160532 | 63 | 201 | 11.0 | 17.0 | 0.00 | 0.00 | 0.00 | 39 | 1007.3 |
| 20260509155524 | 63 | 166 | 9.0 | 15.0 | 0.00 | 0.00 | 0.00 | 39 | 1007.5 |
| 20260509154539 | 63 | 185 | 11.0 | 15.0 | 0.00 | 0.00 | 0.00 | 39 | 1007.7 |
| 20260509153528 | 63 | 178 | 11.0 | 15.0 | 0.00 | 0.00 | 0.00 | 37 | 1007.8 |
| 20260509152519 | 63 | 173 | 9.0 | 19.0 | 0.00 | 0.00 | 0.00 | 41 | 1007.8 |
| 20260509151529 | 62 | 165 | 9.0 | 13.0 | 0.00 | 0.00 | 0.00 | 41 | 1008.0 |
| 20260509150525 | 61 | 158 | 10.0 | 13.0 | 0.00 | 0.00 | 0.00 | 42 | 1008.2 |
| 20260509145532 | 61 | 178 | 9.0 | 13.0 | 0.00 | 0.00 | 0.00 | 42 | 1008.3 |
| 20260509144546 | 61 | 172 | 8.0 | 14.0 | 0.00 | 0.00 | 0.00 | 43 | 1008.3 |
| 20260509143601 | 61 | 204 | 10.0 | 15.0 | 0.00 | 0.00 | 0.00 | 43 | 1008.5 |
| 20260509142531 | 60 | 175 | 7.0 | 12.0 | 0.00 | 0.00 | 0.00 | 44 | 1008.6 |
| 20260509141523 | 60 | 161 | 6.0 | 12.0 | 0.00 | 0.00 | 0.00 | 45 | 1008.5 |
| 20260509140531 | 59 | 156 | 7.0 | 12.0 | 0.00 | 0.00 | 0.00 | 46 | 1008.7 |
| 20260509135526 | 58 | 121 | 7.0 | 10.0 | 0.00 | 0.00 | 0.00 | 47 | 1008.9 |
| 20260509134521 | 58 | 120 | 6.0 | 8.0 | 0.00 | 0.00 | 0.00 | 47 | 1008.9 |
| 20260509133530 | 58 | 171 | 6.0 | 10.0 | 0.00 | 0.00 | 0.00 | 50 | 1008.9 |
| 20260509132526 | 56 | 139 | 5.0 | 8.0 | 0.00 | 0.00 | 0.00 | 51 | 1009.0 |
| 20260509131518 | 54 | 141 | 6.0 | 8.0 | 0.00 | 0.00 | 0.00 | 56 | 1009.0 |
| 20260509130529 | 53 | 141 | 6.0 | 9.0 | 0.00 | 0.00 | 0.00 | 60 | 1009.2 |
| 20260509125525 | 52 | 157 | 6.0 | 9.0 | 0.00 | 0.00 | 0.00 | 62 | 1009.1 |
| 20260509124518 | 51 | 131 | 4.0 | 6.0 | 0.00 | 0.00 | 0.00 | 65 | 1009.3 |
| 20260509123528 | 51 | 162 | 6.0 | 10.0 | 0.00 | 0.00 | 0.00 | 72 | 1009.4 |
| 20260509122525 | 50 | 144 | 2.0 | 4.0 | 0.00 | 0.00 | 0.00 | 83 | 1009.5 |
| 20260509121520 | 48 | 75 | 2.0 | 4.0 | 0.00 | 0.00 | 0.00 | 91 | 1009.7 |
| 20260509120527 | 46 | 90 | 1.0 | 2.0 | 0.00 | 0.00 | 0.00 | 95 | 1009.6 |
| 20260509115524 | 41 | 90 | 0.0 | 2.0 | 0.00 | 0.00 | 0.00 | 96 | 1009.8 |
| 20260509114532 | 40 | 0.0 | 0.0 | 0.00 | 0.00 | 0.00 | 96 | 1009.8 | |
| 20260509113545 | 39 | 0.0 | 0.0 | 0.00 | 0.00 | 0.00 | 95 | 1009.8 | |
| 20260509112520 | 38 | 0.0 | 0.0 | 0.00 | 0.00 | 0.00 | 95 | 1009.7 | |
| 20260509111529 | 37 | 0.0 | 0.0 | 0.00 | 0.00 | 0.00 | 94 | 1009.8 | |
| 20260509110523 | 35 | 0.0 | 0.0 | 0.00 | 0.00 | 0.00 | 93 | 1009.7 | |
| 20260509105518 | 33 | 0.0 | 0.0 | 0.00 | 0.00 | 0.00 | 92 | 1009.7 | |
| 20260509104526 | 32 | 0.0 | 0.0 | 0.00 | 0.00 | 0.00 | 91 | 1009.5 | |
| 20260509103541 | 31 | 0.0 | 0.0 | 0.00 | 0.00 | 0.00 | 91 | 1009.5 | |
| 20260509102552 | 30 | 0.0 | 0.0 | 0.00 | 0.00 | 0.00 | 90 | 1009.4 | |
| 20260509101523 | 30 | 0.0 | 0.0 | 0.00 | 0.00 | 0.00 | 90 | 1009.5 | |
| 20260509100537 | 29 | 0.0 | 0.0 | 0.00 | 0.00 | 0.00 | 90 | 1009.4 | |
| 20260509095526 | 29 | 0.0 | 0.0 | 0.00 | 0.00 | 0.00 | 90 | 1009.3 |